Darstellungsparameter: Aktuell verwendete Einstellungen:
Skalierung der Graphiken ... ?
xyx+y,   Skalierungsfaktor:      Skalierung: Modus: x, Faktor: 1
Darstellungszeitraum ... ?
Vom - - bis: - -   Zeitraum: 17.04.2021 - 19.05.2022
Min/Max/Avg-Anzeige ... ?
Zeige MMA aktuell
Zeige MMA Monat
Zeige MMA alles
Zeige --A aktuell
Zeige --A Monat
Zeige --A alles
Keine MMA-Anzeige
MMA:
Average (ber die Originaldaten)
MMA-Basis: 17.04.2021 - 19.05.2022
Quicknavigation für Darstellung... ?
Tage:      1T, 2T, 3T, 5T -1T -2T -3T -5T +1T +2T +3T +5T
Wochen: 1W, 2W, 3W -1W -2W -3W +1W +2W +3W
Monate: 1M, 3M, 6M -1M -3M -6M +1M +3M +6M
Jahre:    1J, 3J, 5J, 10J -1J -3J -5J -10J +1J +3J +5J +10J
Nutze für die Darstellung ... ?
Originaldaten oder ...
Mittelwerte Minima Maxima auf...
Stundenbasis Tagesbasis Wochenbasis
Monatsbasis Jahresbasis      Datenbasis: Mittelwerte auf Tagesbasis
Darstellen als:
Statistik (Auto) Statistik J:M      Darstellung:

Der gewünschte Datumsbereich war nicht gültig/verfügbar und wurde korrigiert....
Das angegebene Enddatum (16.04.2031 23:59:59) liegt in der Zukunft.


Zur Graphik,    zurück zur Übersicht aller Sensoren.
 
Tabellarische Datenbersicht: ?
 
Sensor: Nr:Datum:Temp:Abs-Feuchte:Windchill:Wind:
Aussen-T/F 1 17-04-2021 00:00:00 7.09653 C 5.49 g/m*3 6.17 C 5.88438 km/h
2 18-04-2021 00:00:00 8.96424 C 6.75 g/m*3 8.96 C 2.73646 km/h
3 19-04-2021 00:00:00 10.27361 C 7.94 g/m*3 10.27 C 2.30833 km/h
4 20-04-2021 00:00:00 9.49931 C 7 g/m*3 9.5 C 1.27014 km/h
5 21-04-2021 00:00:00 10.74375 C 7.19 g/m*3 10.74 C 4.1559 km/h
6 22-04-2021 00:00:00 8.7816 C 5.49 g/m*3 7.62 C 7.78299 km/h
7 23-04-2021 00:00:00 8.16632 C 5.66 g/m*3 8.17 C 3.86354 km/h
8 24-04-2021 00:00:00 9.06042 C 5.94 g/m*3 9.06 C 4.74271 km/h
9 25-04-2021 00:00:00 8.31076 C 5.47 g/m*3 7.66 C 5.55833 km/h
10 26-04-2021 00:00:00 8.13646 C 4.8 g/m*3 7.29 C 6.14479 km/h
11 27-04-2021 00:00:00 10.01632 C 4.89 g/m*3 9.49 C 6.01563 km/h
12 28-04-2021 00:00:00 11.48438 C 6.33 g/m*3 11.48 C 4.43889 km/h
13 29-04-2021 00:00:00 11.84201 C 7.06 g/m*3 11.84 C 12.02014 km/h
14 30-04-2021 00:00:00 8.08681 C 6.14 g/m*3 8.09 C 3.95208 km/h
15 01-05-2021 00:00:00 10.12083 C 6.33 g/m*3 9.78 C 5.36493 km/h
16 02-05-2021 00:00:00 8.56319 C 5.79 g/m*3 7.66 C 6.59236 km/h
17 03-05-2021 00:00:00 8.08958 C 5.62 g/m*3 7.18 C 6.33889 km/h
18 04-05-2021 00:00:00 11.0875 C 7.2 g/m*3 11.09 C 14.54444 km/h
19 05-05-2021 00:00:00 7.64479 C 6.14 g/m*3 5.69 C 10.66319 km/h
20 06-05-2021 00:00:00 7.87813 C 6.69 g/m*3 7.06 C 5.91215 km/h
21 07-05-2021 00:00:00 7.66736 C 6.41 g/m*3 6.56 C 6.81389 km/h
22 08-05-2021 00:00:00 9.96632 C 6.83 g/m*3 9.97 C 3.73576 km/h
23 09-05-2021 00:00:00 18.04653 C 10.08 g/m*3 18.05 C 6.30035 km/h
24 10-05-2021 00:00:00 17.83646 C 10.87 g/m*3 17.84 C 6.72951 km/h
25 11-05-2021 00:00:00 13.64132 C 11.16 g/m*3 13.64 C 1.67361 km/h
Sensor: Nr:Datum:Temp:Abs-Feuchte:Windchill:Wind:
Aussen-T/F 26 12-05-2021 00:00:00 14.16042 C 9.77 g/m*3 14.16 C 4.97743 km/h
27 13-05-2021 00:00:00 12.7441 C 8.61 g/m*3 12.74 C 3.80833 km/h
28 14-05-2021 00:00:00 13.14375 C 8.5 g/m*3 13.14 C 5.64861 km/h
29 15-05-2021 00:00:00 11.39861 C 8.97 g/m*3 11.4 C 4.22743 km/h
30 16-05-2021 00:00:00 11.40799 C 9.1 g/m*3 11.41 C 5.60833 km/h
31 17-05-2021 00:00:00 12.12326 C 9.24 g/m*3 12.12 C 8.30243 km/h
32 18-05-2021 00:00:00 10.75243 C 8.92 g/m*3 10.32 C 6.07847 km/h
33 19-05-2021 00:00:00 10.85243 C 8.61 g/m*3 10.32 C 6.54931 km/h
34 20-05-2021 00:00:00 12.43264 C 8.89 g/m*3 12.43 C 4.62257 km/h
35 21-05-2021 00:00:00 14.13958 C 8.32 g/m*3 14.14 C 10.73333 km/h
36 22-05-2021 00:00:00 11.75903 C 8.3 g/m*3 11.76 C 13.07014 km/h
37 23-05-2021 00:00:00 11.90069 C 8.03 g/m*3 11.9 C 9.21458 km/h
38 24-05-2021 00:00:00 11.46944 C 8.48 g/m*3 11.47 C 5.73194 km/h
39 25-05-2021 00:00:00 10.36424 C 8.17 g/m*3 8.79 C 11.73924 km/h
40 26-05-2021 00:00:00 10.95312 C 8.88 g/m*3 10.33 C 7.02257 km/h
41 27-05-2021 00:00:00 11.44896 C 8.99 g/m*3 11.45 C 7.41076 km/h
42 28-05-2021 00:00:00 13.48993 C 8.99 g/m*3 13.49 C 3.70486 km/h
43 29-05-2021 00:00:00 13.71181 C 8.47 g/m*3 13.71 C 5.0309 km/h
44 30-05-2021 00:00:00 14.68611 C 8.45 g/m*3 14.69 C 6.49792 km/h
45 31-05-2021 00:00:00 16.09722 C 9.03 g/m*3 16.1 C 5.125 km/h
46 01-06-2021 00:00:00 16.74132 C 9.13 g/m*3 16.74 C 5.05243 km/h
47 02-06-2021 00:00:00 18.31146 C 10.09 g/m*3 18.31 C 4.86701 km/h
48 03-06-2021 00:00:00 19.31597 C 14.06 g/m*3 19.32 C 2.38819 km/h
49 04-06-2021 00:00:00 19.49097 C 15.22 g/m*3 19.49 C 2.20417 km/h
50 05-06-2021 00:00:00 17.62465 C 13.72 g/m*3 17.62 C 3.38785 km/h
Sensor: Nr:Datum:Temp:Abs-Feuchte:Windchill:Wind:
Aussen-T/F 51 06-06-2021 00:00:00 15.63021 C 12.13 g/m*3 15.63 C 5.57743 km/h
52 07-06-2021 00:00:00 17.37188 C 13.22 g/m*3 17.37 C 2.78576 km/h
53 08-06-2021 00:00:00 18.99167 C 13.34 g/m*3 18.99 C 2.50938 km/h
54 09-06-2021 00:00:00 19.75347 C 13.08 g/m*3 19.75 C 3.59861 km/h
55 10-06-2021 00:00:00 20.5309 C 12.66 g/m*3 20.53 C 3.97743 km/h
56 11-06-2021 00:00:00 20.7809 C 13.27 g/m*3 20.78 C 3.30625 km/h
57 12-06-2021 00:00:00 19.39167 C 12.75 g/m*3 19.39 C 6.87049 km/h
58 13-06-2021 00:00:00 17.70799 C 9.99 g/m*3 17.71 C 4.7559 km/h
59 14-06-2021 00:00:00 19.1125 C 11.29 g/m*3 19.11 C 2.72743 km/h
60 15-06-2021 00:00:00 21.18333 C 13.27 g/m*3 21.18 C 3.97917 km/h
61 16-06-2021 00:00:00 23.67361 C 14.87 g/m*3 23.67 C 4.09479 km/h
62 17-06-2021 00:00:00 24.79931 C 16.38 g/m*3 24.8 C 3.51771 km/h
63 18-06-2021 00:00:00 25.62431 C 17.6 g/m*3 25.62 C 2.94653 km/h
64 19-06-2021 00:00:00 24.69757 C 16.26 g/m*3 24.7 C 3.33819 km/h
65 20-06-2021 00:00:00 22.50486 C 16.31 g/m*3 22.5 C 6.64653 km/h
66 21-06-2021 00:00:00 20.09757 C 14.31 g/m*3 20.1 C 9.32604 km/h
67 22-06-2021 00:00:00 15.5941 C 12.34 g/m*3 15.59 C 1.92292 km/h
68 23-06-2021 00:00:00 17.93021 C 13.31 g/m*3 17.93 C 4.35833 km/h
69 24-06-2021 00:00:00 17.02604 C 13.28 g/m*3 17.03 C 1.94688 km/h
70 25-06-2021 00:00:00 18.32326 C 12.63 g/m*3 18.32 C 4.44063 km/h
71 26-06-2021 00:00:00 18.14583 C 12.05 g/m*3 18.15 C 2.1684 km/h
72 27-06-2021 00:00:00 20.21875 C 14.32 g/m*3 20.22 C 2.91389 km/h
73 28-06-2021 00:00:00 20.21285 C 15.5 g/m*3 20.21 C 2.91215 km/h
74 29-06-2021 00:00:00 18.4441 C 14.44 g/m*3 18.44 C 4.45243 km/h
75 30-06-2021 00:00:00 16.35764 C 12.76 g/m*3 16.36 C 4.95208 km/h
Sensor: Nr:Datum:Temp:Abs-Feuchte:Windchill:Wind:
Aussen-T/F 76 01-07-2021 00:00:00 15.16146 C 11.47 g/m*3 15.16 C 4.44306 km/h
77 02-07-2021 00:00:00 17.66597 C 12.06 g/m*3 17.67 C 3.21389 km/h
78 03-07-2021 00:00:00 18.65035 C 13.3 g/m*3 18.65 C 1.77847 km/h
79 04-07-2021 00:00:00 18.04479 C 14.21 g/m*3 18.04 C 2.08889 km/h
80 05-07-2021 00:00:00 17.35104 C 13.64 g/m*3 17.35 C 2.06736 km/h
81 06-07-2021 00:00:00 17.76562 C 13.99 g/m*3 17.77 C 3.45174 km/h
82 07-07-2021 00:00:00 18.26319 C 13.29 g/m*3 18.26 C 2.64236 km/h
83 08-07-2021 00:00:00 16.6816 C 13.14 g/m*3 16.68 C 1.46389 km/h
84 09-07-2021 00:00:00 17.82292 C 13.68 g/m*3 17.82 C 3.13333 km/h
85 10-07-2021 00:00:00 18.66944 C 13.82 g/m*3 18.67 C 2.32604 km/h
86 11-07-2021 00:00:00 18.2066 C 13.98 g/m*3 18.21 C 1.57083 km/h
87 12-07-2021 00:00:00 18.59028 C 14.16 g/m*3 18.59 C 1.65833 km/h
88 13-07-2021 00:00:00 18.75347 C 15.08 g/m*3 18.75 C 1.39097 km/h
89 14-07-2021 00:00:00 16.93438 C 13.81 g/m*3 16.93 C 2.84722 km/h
90 15-07-2021 00:00:00 19.04028 C 14.41 g/m*3 19.04 C 2.32882 km/h
91 16-07-2021 00:00:00 18.48299 C 14.12 g/m*3 18.48 C 5.37014 km/h
92 17-07-2021 00:00:00 19.88681 C 14.39 g/m*3 19.89 C 5.26458 km/h
93 18-07-2021 00:00:00 20.82257 C 14.23 g/m*3 20.82 C 6.69063 km/h
94 19-07-2021 00:00:00 18.94792 C 13.09 g/m*3 18.95 C 5.35521 km/h
95 20-07-2021 00:00:00 17.74097 C 11.78 g/m*3 17.74 C 3.68924 km/h
96 21-07-2021 00:00:00 18.1066 C 11.55 g/m*3 18.11 C 3.13924 km/h
97 22-07-2021 00:00:00 18.83368 C 12.67 g/m*3 18.83 C 1.57083 km/h
98 23-07-2021 00:00:00 20.0434 C 13.41 g/m*3 20.04 C 2.2809 km/h
99 24-07-2021 00:00:00 18.05556 C 14.22 g/m*3 18.06 C 1.81597 km/h
100 25-07-2021 00:00:00 19.12254 C 14.63 g/m*3 19.12 C 3.21373 km/h
Sensor: Nr:Datum:Temp:Abs-Feuchte:Windchill:Wind:
Aussen-T/F 101 26-07-2021 00:00:00 19.75139 C 14.08 g/m*3 19.75 C 5.21181 km/h
102 27-07-2021 00:00:00 18.37014 C 13.79 g/m*3 18.37 C 3.20313 km/h
103 28-07-2021 00:00:00 18.33924 C 13.37 g/m*3 18.34 C 6.67326 km/h
104 29-07-2021 00:00:00 18.12465 C 11.91 g/m*3 18.12 C 7.2559 km/h
105 30-07-2021 00:00:00 18.71042 C 12.1 g/m*3 18.71 C 6.20035 km/h
106 31-07-2021 00:00:00 18.27676 C 11.33 g/m*3 18.28 C 9.38556 km/h
107 01-08-2021 00:00:00 17.03264 C 11.96 g/m*3 17.03 C 5.34028 km/h
108 02-08-2021 00:00:00 15.90278 C 12.39 g/m*3 15.9 C 3.55347 km/h
109 03-08-2021 00:00:00 16.08889 C 12.52 g/m*3 16.09 C 2.00139 km/h
110 04-08-2021 00:00:00 16.26181 C 12.55 g/m*3 16.26 C 1.64618 km/h
111 05-08-2021 00:00:00 17.575 C 13.18 g/m*3 17.58 C 1.77361 km/h
112 06-08-2021 00:00:00 18.07951 C 13.14 g/m*3 18.08 C 6.92743 km/h
113 07-08-2021 00:00:00 17.24306 C 12.51 g/m*3 17.24 C 2.12986 km/h
114 08-08-2021 00:00:00 16.03063 C 11.87 g/m*3 16.03 C 6.99373 km/h
115 09-08-2021 00:00:00 15.70461 C 11.41 g/m*3 15.7 C 3.17834 km/h
116 10-08-2021 00:00:00 17.57666 C 12.63 g/m*3 17.58 C 4.76272 km/h
117 11-08-2021 00:00:00 18.75245 C 13.7 g/m*3 18.75 C 0.79545 km/h
118 12-08-2021 00:00:00 20.1691 C 14.6 g/m*3 20.17 C 1.32153 km/h
119 13-08-2021 00:00:00 20.75729 C 15.18 g/m*3 20.76 C 2.97083 km/h
120 14-08-2021 00:00:00 19.68056 C 14.17 g/m*3 19.68 C 2.80625 km/h
121 15-08-2021 00:00:00 18.95486 C 13.82 g/m*3 18.95 C 1.39826 km/h
122 16-08-2021 00:00:00 16.7316 C 11.99 g/m*3 16.73 C 8.29201 km/h
123 17-08-2021 00:00:00 13.51285 C 10.47 g/m*3 13.51 C 7.6434 km/h
124 18-08-2021 00:00:00 16.68368 C 12.84 g/m*3 16.68 C 5.44896 km/h
125 19-08-2021 00:00:00 18.23472 C 13.36 g/m*3 18.23 C 6.95833 km/h
Sensor: Nr:Datum:Temp:Abs-Feuchte:Windchill:Wind:
Aussen-T/F 126 20-08-2021 00:00:00 17.56042 C 13.02 g/m*3 17.56 C 2.08472 km/h
127 21-08-2021 00:00:00 18.3684 C 13.73 g/m*3 18.37 C 1.52847 km/h
128 22-08-2021 00:00:00 18.26146 C 14.09 g/m*3 18.26 C 4.12014 km/h
129 23-08-2021 00:00:00 17.50521 C 13.23 g/m*3 17.51 C 2.96111 km/h
130 24-08-2021 00:00:00 15.66146 C 11.14 g/m*3 15.66 C 3.90313 km/h
131 25-08-2021 00:00:00 15.02708 C 10.55 g/m*3 15.03 C 1.83333 km/h
132 26-08-2021 00:00:00 16.40174 C 11.39 g/m*3 16.4 C 6.78056 km/h
133 27-08-2021 00:00:00 14.92917 C 11.24 g/m*3 14.93 C 5.78715 km/h
134 28-08-2021 00:00:00 15.44653 C 12.35 g/m*3 15.45 C 1.7809 km/h
135 29-08-2021 00:00:00 15.32778 C 12.24 g/m*3 15.33 C 5.13889 km/h
136 30-08-2021 00:00:00 17.17202 C 12.79 g/m*3 17.17 C 4.32294 km/h
137 31-08-2021 00:00:00 15.90451 C 11.81 g/m*3 15.9 C 4.22708 km/h
138 01-09-2021 00:00:00 15.32292 C 11.29 g/m*3 15.32 C 2.77882 km/h
139 02-09-2021 00:00:00 15.57326 C 11.45 g/m*3 15.57 C 2.15972 km/h
140 03-09-2021 00:00:00 15.62043 C 11.47 g/m*3 15.62 C 1.29574 km/h
141 04-09-2021 00:00:00 16.59444 C 12.1 g/m*3 16.59 C 1.47535 km/h
142 05-09-2021 00:00:00 16.91007 C 12.65 g/m*3 16.91 C 0.80069 km/h
143 06-09-2021 00:00:00 17.19123 C 12.79 g/m*3 17.19 C 1.01754 km/h
144 07-09-2021 00:00:00 17.42293 C 12.77 g/m*3 17.42 C 0.62556 km/h
145 08-09-2021 00:00:00 17.4852 C 12.38 g/m*3 17.49 C 1.72347 km/h
146 09-09-2021 00:00:00 18.16224 C 13.65 g/m*3 18.16 C 2.72517 km/h
147 10-09-2021 00:00:00 20.31875 C 15.55 g/m*3 20.32 C 3.35139 km/h
148 11-09-2021 00:00:00 18.95243 C 14.07 g/m*3 18.95 C 1.82674 km/h
149 12-09-2021 00:00:00 16.74271 C 11.85 g/m*3 16.74 C 2.36979 km/h
150 13-09-2021 00:00:00 14.9375 C 11.26 g/m*3 14.94 C 0.90069 km/h
Sensor: Nr:Datum:Temp:Abs-Feuchte:Windchill:Wind:
Aussen-T/F 151 14-09-2021 00:00:00 16.50764 C 13.03 g/m*3 16.51 C 0.66111 km/h
152 15-09-2021 00:00:00 19.16389 C 15.39 g/m*3 19.16 C 2.25938 km/h
153 16-09-2021 00:00:00 16.22812 C 12.2 g/m*3 16.23 C 3.74896 km/h
154 17-09-2021 00:00:00 14.5809 C 11.23 g/m*3 14.58 C 0.69549 km/h
155 18-09-2021 00:00:00 14.56979 C 11.26 g/m*3 14.57 C 0.18889 km/h
156 19-09-2021 00:00:00 13.99062 C 10.48 g/m*3 13.99 C 2.46319 km/h
157 20-09-2021 00:00:00 13.42153 C 9.74 g/m*3 13.42 C 2.05347 km/h
158 21-09-2021 00:00:00 12.21701 C 8.63 g/m*3 12.22 C 1.90556 km/h
159 22-09-2021 00:00:00 11.0684 C 9 g/m*3 11.07 C 0.24444 km/h
160 23-09-2021 00:00:00 13.46458 C 9.81 g/m*3 13.46 C 3.08611 km/h
161 24-09-2021 00:00:00 15.75139 C 11.46 g/m*3 15.75 C 5.2 km/h
162 25-09-2021 00:00:00 14.55035 C 11.21 g/m*3 14.55 C 0.02778 km/h
163 26-09-2021 00:00:00 16.16667 C 12.73 g/m*3 16.17 C 1.00764 km/h
164 27-09-2021 00:00:00 16.01493 C 12.56 g/m*3 16.01 C 1.86146 km/h
165 28-09-2021 00:00:00 12.70486 C 10.13 g/m*3 12.7 C 2.32951 km/h
166 29-09-2021 00:00:00 11.46528 C 9.04 g/m*3 11.47 C 5.54514 km/h
167 30-09-2021 00:00:00 10.65104 C 8.33 g/m*3 10.24 C 5.93819 km/h
168 01-10-2021 00:00:00 11.02917 C 8.66 g/m*3 11.03 C 2.28993 km/h
169 02-10-2021 00:00:00 15.01458 C 11.2 g/m*3 15.01 C 2.77188 km/h
170 03-10-2021 00:00:00 18.50799 C 12.03 g/m*3 18.51 C 7.05417 km/h
171 04-10-2021 00:00:00 13.61597 C 9.94 g/m*3 13.62 C 2.47778 km/h
172 05-10-2021 00:00:00 12.23056 C 9.63 g/m*3 12.23 C 2.73542 km/h
173 06-10-2021 00:00:00 11.90382 C 9.14 g/m*3 11.9 C 9.46736 km/h
174 07-10-2021 00:00:00 12.24826 C 9.75 g/m*3 12.25 C 2.25278 km/h
175 08-10-2021 00:00:00 10.55104 C 8.99 g/m*3 10.55 C 1.36563 km/h
Sensor: Nr:Datum:Temp:Abs-Feuchte:Windchill:Wind:
Aussen-T/F 176 09-10-2021 00:00:00 9.57049 C 8.41 g/m*3 9.57 C 1.41181 km/h
177 10-10-2021 00:00:00 7.3184 C 7.33 g/m*3 7.32 C 1.06736 km/h
178 11-10-2021 00:00:00 8.84479 C 7.95 g/m*3 8.84 C 2.35417 km/h
179 12-10-2021 00:00:00 10.04271 C 9 g/m*3 10.04 C 2.00382 km/h
180 13-10-2021 00:00:00 8.32569 C 7.99 g/m*3 8.33 C 2.06319 km/h
181 14-10-2021 00:00:00 10.88194 C 9.12 g/m*3 10.88 C 4.49896 km/h
182 15-10-2021 00:00:00 9.27708 C 8.37 g/m*3 9.28 C 4.56597 km/h
183 16-10-2021 00:00:00 7.72118 C 7.86 g/m*3 7.72 C 1.28368 km/h
184 17-10-2021 00:00:00 9.33681 C 8.28 g/m*3 9.34 C 0.84132 km/h
185 18-10-2021 00:00:00 7.59896 C 7.52 g/m*3 7.6 C 1.41563 km/h
186 19-10-2021 00:00:00 11.75903 C 10.07 g/m*3 11.76 C 2.4184 km/h
187 20-10-2021 00:00:00 13.41528 C 10.99 g/m*3 13.42 C 3.45556 km/h
188 21-10-2021 00:00:00 11.72882 C 8.86 g/m*3 11.73 C 15.61458 km/h
189 22-10-2021 00:00:00 7.64946 C 6.94 g/m*3 5.92 C 9.49713 km/h
190 23-10-2021 00:00:00 8.12431 C 7.68 g/m*3 8.12 C 0.82778 km/h
191 24-10-2021 00:00:00 5.46007 C 6.56 g/m*3 5.46 C 1.0684 km/h
192 25-10-2021 00:00:00 6.09063 C 7.01 g/m*3 6.09 C 1.26597 km/h
193 26-10-2021 00:00:00 11.92049 C 9.22 g/m*3 11.92 C 8.95313 km/h
194 27-10-2021 00:00:00 12.22986 C 9.65 g/m*3 12.23 C 6.11736 km/h
195 28-10-2021 00:00:00 8.55139 C 8.09 g/m*3 8.55 C 2.53611 km/h
196 29-10-2021 00:00:00 8.21389 C 7.83 g/m*3 8.21 C 1.06354 km/h
197 30-10-2021 00:00:00 9.46285 C 8.52 g/m*3 9.46 C 1.775 km/h
198 31-10-2021 00:00:00 13.42361 C 10.8 g/m*3 13.42 C 2.30347 km/h
199 01-11-2021 00:00:00 9.80764 C 8.42 g/m*3 9.81 C 4.00313 km/h
200 02-11-2021 00:00:00 7.40556 C 7.56 g/m*3 7.41 C 1.99201 km/h
Sensor: Nr:Datum:Temp:Abs-Feuchte:Windchill:Wind:
Aussen-T/F 201 03-11-2021 00:00:00 7.15833 C 7.57 g/m*3 7.16 C 0.95382 km/h
202 04-11-2021 00:00:00 7.47153 C 7.58 g/m*3 7.47 C 4.87188 km/h
203 05-11-2021 00:00:00 7.72639 C 7.69 g/m*3 7.73 C 1.42222 km/h
204 06-11-2021 00:00:00 7.21007 C 7.23 g/m*3 6.25 C 6.05069 km/h
205 07-11-2021 00:00:00 8.28576 C 7.31 g/m*3 6.01 C 13.46563 km/h
206 08-11-2021 00:00:00 7.43125 C 7.36 g/m*3 7.43 C 1.85625 km/h
207 09-11-2021 00:00:00 4.94965 C 6.45 g/m*3 4.95 C 0.69444 km/h
208 10-11-2021 00:00:00 1.52188 C 5.19 g/m*3 1.52 C 0.42778 km/h
209 11-11-2021 00:00:00 2.06285 C 5.42 g/m*3 2.06 C 1.17222 km/h
210 12-11-2021 00:00:00 2.05104 C 5.4 g/m*3 2.05 C 1.7066 km/h
211 13-11-2021 00:00:00 6.30139 C 7.18 g/m*3 6.3 C 0.48958 km/h
212 14-11-2021 00:00:00 8.13194 C 8.01 g/m*3 8.13 C 1.26007 km/h
213 15-11-2021 00:00:00 7.29306 C 7.32 g/m*3 7.29 C 2.57569 km/h
214 16-11-2021 00:00:00 5.99063 C 6.95 g/m*3 5.99 C 0.04444 km/h
215 17-11-2021 00:00:00 6.40104 C 7.01 g/m*3 5.59 C 5.21736 km/h
216 18-11-2021 00:00:00 5.99167 C 6.87 g/m*3 5.99 C 3.74965 km/h
217 19-11-2021 00:00:00 9.17708 C 8.26 g/m*3 8.12 C 7.61806 km/h
218 20-11-2021 00:00:00 8.13021 C 7.62 g/m*3 8.13 C 1.53924 km/h
219 21-11-2021 00:00:00 6.92187 C 7.32 g/m*3 6.92 C 3.75486 km/h
220 22-11-2021 00:00:00 4.30625 C 5.99 g/m*3 4.31 C 2.13403 km/h
221 23-11-2021 00:00:00 0.85625 C 4.92 g/m*3 0.86 C 0 km/h
222 24-11-2021 00:00:00 3.7691 C 5.8 g/m*3 3.77 C 0.45069 km/h
223 25-11-2021 00:00:00 3.23958 C 5.56 g/m*3 3.24 C 0.13889 km/h
224 26-11-2021 00:00:00 3.97083 C 5.7 g/m*3 2.84 C 5.17951 km/h
225 27-11-2021 00:00:00 2.5934 C 5.29 g/m*3 2.59 C 3.8125 km/h
Sensor: Nr:Datum:Temp:Abs-Feuchte:Windchill:Wind:
Aussen-T/F 226 28-11-2021 00:00:00 2.37083 C 5.45 g/m*3 2.37 C 0.7066 km/h
227 29-11-2021 00:00:00 2.425 C 5.39 g/m*3 0.88 C 5.68056 km/h
228 30-11-2021 00:00:00 5.43368 C 6.4 g/m*3 1.45 C 21.45313 km/h
229 01-12-2021 00:00:00 7.85486 C 7.37 g/m*3 5 C 17.09271 km/h
230 02-12-2021 00:00:00 3.98472 C 5.79 g/m*3 2.12 C 7.36354 km/h
231 03-12-2021 00:00:00 2.66597 C 5.11 g/m*3 0.43 C 7.88056 km/h
232 04-12-2021 00:00:00 4.26979 C 6.02 g/m*3 4.27 C 4.35104 km/h
233 05-12-2021 00:00:00 3.56597 C 5.72 g/m*3 3.57 C 1.59306 km/h
234 06-12-2021 00:00:00 2.27778 C 5.39 g/m*3 2.28 C 2.75729 km/h
235 07-12-2021 00:00:00 3.60989 C 5.67 g/m*3 1.43 C 8.25936 km/h
236 08-12-2021 00:00:00 3.88854 C 5.83 g/m*3 3.89 C 3.59618 km/h
237 09-12-2021 00:00:00 2.99028 C 5.47 g/m*3 1.53 C 5.67951 km/h
238 10-12-2021 00:00:00 2.62882 C 5.22 g/m*3 2.63 C 2.95035 km/h
239 11-12-2021 00:00:00 3.46007 C 5.74 g/m*3 2 C 5.85694 km/h
240 12-12-2021 00:00:00 5.02674 C 6.38 g/m*3 3.18 C 7.95833 km/h
241 13-12-2021 00:00:00 7.93368 C 7.69 g/m*3 7.93 C 2.89271 km/h
242 14-12-2021 00:00:00 7.64792 C 7.55 g/m*3 7.65 C 1.625 km/h
243 15-12-2021 00:00:00 8.35312 C 7.77 g/m*3 8.35 C 2.27813 km/h
244 16-12-2021 00:00:00 8.60035 C 7.97 g/m*3 8.6 C 0.71806 km/h
245 17-12-2021 00:00:00 7.56667 C 7.54 g/m*3 7.57 C 0.50035 km/h
246 18-12-2021 00:00:00 4.44514 C 6.29 g/m*3 4.45 C 1.85174 km/h
247 19-12-2021 00:00:00 5.97917 C 6.79 g/m*3 4.98 C 5.59479 km/h
248 20-12-2021 00:00:00 2.84965 C 5.44 g/m*3 2.85 C 1.12813 km/h
249 21-12-2021 00:00:00 -3.77569 C 3.55 g/m*3 -3.78 C 0.16111 km/h
250 22-12-2021 00:00:00 -4.11632 C 3.46 g/m*3 -4.12 C 0.02778 km/h
Sensor: Nr:Datum:Temp:Abs-Feuchte:Windchill:Wind:
Aussen-T/F 251 23-12-2021 00:00:00 0.27813 C 4.67 g/m*3 -1.7 C 5.98611 km/h
252 24-12-2021 00:00:00 8.38854 C 7.57 g/m*3 6.51 C 11.09375 km/h
253 25-12-2021 00:00:00 3.19514 C 5.69 g/m*3 3.2 C 3.71181 km/h
254 26-12-2021 00:00:00 0.79167 C 4.78 g/m*3 0.79 C 2.03021 km/h
255 27-12-2021 00:00:00 4.78819 C 6.47 g/m*3 4.79 C 0.96875 km/h
256 28-12-2021 00:00:00 8.62396 C 8.11 g/m*3 7.42 C 7.85556 km/h
257 29-12-2021 00:00:00 9.86042 C 8.52 g/m*3 8.79 C 8.27049 km/h
258 30-12-2021 00:00:00 13.13437 C 10.63 g/m*3 13.13 C 11.45833 km/h
259 31-12-2021 00:00:00 12.33194 C 9.78 g/m*3 12.33 C 9.79271 km/h
260 01-01-2022 00:00:00 10.80382 C 9.09 g/m*3 10.8 C 3.21632 km/h
261 02-01-2022 00:00:00 9.48403 C 8.29 g/m*3 8.42 C 7.90382 km/h
262 03-01-2022 00:00:00 9.86563 C 8.29 g/m*3 8.02 C 12.93333 km/h
263 04-01-2022 00:00:00 7.22049 C 7.44 g/m*3 6.29 C 5.94931 km/h
264 05-01-2022 00:00:00 4.0559 C 5.52 g/m*3 1.02 C 12.50694 km/h
265 06-01-2022 00:00:00 3.13194 C 5.49 g/m*3 3.13 C 3.49861 km/h
266 07-01-2022 00:00:00 2.98056 C 5.35 g/m*3 0.27 C 9.89236 km/h
267 08-01-2022 00:00:00 1.76354 C 5.19 g/m*3 1.76 C 3.82153 km/h
268 09-01-2022 00:00:00 4.20139 C 5.92 g/m*3 1.94 C 8.98958 km/h
269 10-01-2022 00:00:00 1.95312 C 5.24 g/m*3 1.95 C 2.48125 km/h
270 11-01-2022 00:00:00 -0.04375 C 4.62 g/m*3 -0.04 C 1.95556 km/h
271 12-01-2022 00:00:00 0.49792 C 4.76 g/m*3 0.5 C 0.88958 km/h
272 13-01-2022 00:00:00 1.37743 C 5.01 g/m*3 1.38 C 0.53333 km/h
273 14-01-2022 00:00:00 0.13819 C 4.74 g/m*3 0.14 C 0.96667 km/h
274 15-01-2022 00:00:00 2.04792 C 5.34 g/m*3 2.05 C 1.81181 km/h
275 16-01-2022 00:00:00 2.73264 C 5.41 g/m*3 -0.56 C 12.32604 km/h
Sensor: Nr:Datum:Temp:Abs-Feuchte:Windchill:Wind:
Aussen-T/F 276 17-01-2022 00:00:00 5.46493 C 6.39 g/m*3 3.09 C 10.58229 km/h
277 18-01-2022 00:00:00 6.39375 C 6.9 g/m*3 6.39 C 0.77361 km/h
278 19-01-2022 00:00:00 3.79792 C 5.7 g/m*3 1.72 C 8.00729 km/h
279 20-01-2022 00:00:00 3.75868 C 5.51 g/m*3 1.25 C 9.67396 km/h
280 21-01-2022 00:00:00 3.49826 C 5.52 g/m*3 1.66 C 7.00625 km/h
281 22-01-2022 00:00:00 5.33785 C 6.36 g/m*3 5.34 C 3.48056 km/h
282 23-01-2022 00:00:00 4.91806 C 6.29 g/m*3 4.92 C 0.25556 km/h
283 24-01-2022 00:00:00 3.16979 C 5.45 g/m*3 3.17 C 1.35868 km/h
284 25-01-2022 00:00:00 2.26424 C 5.29 g/m*3 2.26 C 2.67986 km/h
285 26-01-2022 00:00:00 2.02674 C 5.12 g/m*3 2.03 C 4.36354 km/h
286 27-01-2022 00:00:00 3.49583 C 5.5 g/m*3 0.16 C 13.44236 km/h
287 28-01-2022 00:00:00 5.50104 C 5.94 g/m*3 3.25 C 10.01424 km/h
288 29-01-2022 00:00:00 6.97188 C 6.91 g/m*3 4 C 16.3309 km/h
289 30-01-2022 00:00:00 6.09653 C 5.5 g/m*3 3.65 C 11.62743 km/h
290 31-01-2022 00:00:00 4.35 C 5.81 g/m*3 0.65 C 16.96007 km/h
291 01-02-2022 00:00:00 5.41736 C 6.07 g/m*3 2.08 C 16.23472 km/h
292 02-02-2022 00:00:00 8.17535 C 6.98 g/m*3 6.44 C 10.06042 km/h
293 03-02-2022 00:00:00 7.63611 C 7.3 g/m*3 6.31 C 7.65278 km/h
294 04-02-2022 00:00:00 6.72535 C 6.68 g/m*3 4.53 C 11.00556 km/h
295 05-02-2022 00:00:00 3.79861 C 5.39 g/m*3 0.76 C 12.21632 km/h
296 06-02-2022 00:00:00 6.18611 C 6.49 g/m*3 2.5 C 20.51458 km/h
297 07-02-2022 00:00:00 4.77812 C 5.52 g/m*3 1.98 C 12.05625 km/h
298 08-02-2022 00:00:00 7.06389 C 6.8 g/m*3 4.67 C 12.49479 km/h
299 09-02-2022 00:00:00 8.18229 C 7.33 g/m*3 8.18 C 3.99826 km/h
300 10-02-2022 00:00:00 4.81597 C 6.16 g/m*3 2.97 C 7.81181 km/h
Sensor: Nr:Datum:Temp:Abs-Feuchte:Windchill:Wind:
Aussen-T/F 301 11-02-2022 00:00:00 3.00208 C 5.29 g/m*3 1.1 C 6.96944 km/h
302 12-02-2022 00:00:00 -0.3434 C 4.33 g/m*3 -0.34 C 1.51944 km/h
303 13-02-2022 00:00:00 1.22569 C 4.83 g/m*3 1.23 C 1.80278 km/h
304 14-02-2022 00:00:00 7.63299 C 6.82 g/m*3 6.79 C 5.86701 km/h
305 15-02-2022 00:00:00 6.89271 C 6.47 g/m*3 5.15 C 8.8816 km/h
306 16-02-2022 00:00:00 11.03819 C 8.56 g/m*3 11.04 C 20.79583 km/h
307 17-02-2022 00:00:00 11.06701 C 6.93 g/m*3 11.07 C 22.90243 km/h
308 18-02-2022 00:00:00 9.87188 C 7.13 g/m*3 7.37 C 18.48125 km/h
309 19-02-2022 00:00:00 6.35868 C 5.23 g/m*3 2.99 C 18.2441 km/h
310 20-02-2022 00:00:00 9.10937 C 7.46 g/m*3 5.97 C 23.03507 km/h
311 21-02-2022 00:00:00 6.44722 C 6.14 g/m*3 2.68 C 21.97188 km/h
312 22-02-2022 00:00:00 7.36042 C 6.55 g/m*3 4.6 C 15.46528 km/h
313 23-02-2022 00:00:00 6.47326 C 6.22 g/m*3 6.47 C 4.78819 km/h
314 24-02-2022 00:00:00 6.62569 C 6.43 g/m*3 4.89 C 8.65208 km/h
315 25-02-2022 00:00:00 3.67917 C 5.38 g/m*3 0.86 C 10.98646 km/h
316 26-02-2022 00:00:00 3.14792 C 5.32 g/m*3 3.15 C 1.76875 km/h
317 27-02-2022 00:00:00 1.75104 C 4.49 g/m*3 1.75 C 3.87118 km/h
318 28-02-2022 00:00:00 1.89201 C 4.4 g/m*3 1.89 C 2.27986 km/h
319 01-03-2022 00:00:00 2.02812 C 4.31 g/m*3 2.03 C 1.53264 km/h
320 02-03-2022 00:00:00 3.03229 C 4.38 g/m*3 3.03 C 2.08403 km/h
321 03-03-2022 00:00:00 2.25069 C 4.2 g/m*3 2.25 C 2.58194 km/h
322 04-03-2022 00:00:00 1.86701 C 4.18 g/m*3 1.87 C 2.96875 km/h
323 05-03-2022 00:00:00 0.95903 C 4 g/m*3 0.96 C 2.30972 km/h
324 06-03-2022 00:00:00 0.51076 C 3.71 g/m*3 0.51 C 3.02847 km/h
325 07-03-2022 00:00:00 0.4684 C 3.53 g/m*3 -1.12 C 5.14132 km/h
Sensor: Nr:Datum:Temp:Abs-Feuchte:Windchill:Wind:
Aussen-T/F 326 08-03-2022 00:00:00 1.5316 C 3.83 g/m*3 1.53 C 3.74514 km/h
327 09-03-2022 00:00:00 2.68715 C 4.06 g/m*3 2.69 C 2.30174 km/h
328 10-03-2022 00:00:00 4.09792 C 4.38 g/m*3 4.1 C 2.88924 km/h
329 11-03-2022 00:00:00 5.45104 C 4.52 g/m*3 5.45 C 4.65347 km/h
330 12-03-2022 00:00:00 8.48785 C 5.19 g/m*3 8.49 C 4.89861 km/h
331 13-03-2022 00:00:00 7.91111 C 5.34 g/m*3 7.91 C 3.34097 km/h
332 14-03-2022 00:00:00 8.85417 C 7.27 g/m*3 7.78 C 7.49132 km/h
333 15-03-2022 00:00:00 4.95556 C 6.4 g/m*3 4.96 C 0 km/h
334 16-03-2022 00:00:00 7.40347 C 7.1 g/m*3 7.4 C 1.68438 km/h
335 17-03-2022 00:00:00 7.78056 C 7.1 g/m*3 7.23 C 5.01042 km/h
336 18-03-2022 00:00:00 6.60938 C 5.34 g/m*3 6.61 C 4.90243 km/h
337 19-03-2022 00:00:00 6.96528 C 5.16 g/m*3 5.28 C 8.71701 km/h
338 20-03-2022 00:00:00 7.34583 C 5.71 g/m*3 7.35 C 4.65035 km/h
339 21-03-2022 00:00:00 10.51563 C 6.79 g/m*3 10.52 C 2.27951 km/h
340 22-03-2022 00:00:00 8.42396 C 5.53 g/m*3 8.42 C 3.02951 km/h
341 23-03-2022 00:00:00 8.30972 C 5.71 g/m*3 8.31 C 1.58438 km/h
342 24-03-2022 00:00:00 8.64132 C 5.81 g/m*3 8.64 C 2.23125 km/h
343 25-03-2022 00:00:00 8.58819 C 5.77 g/m*3 8.59 C 2.63646 km/h
344 26-03-2022 00:00:00 8.94306 C 5.98 g/m*3 8.94 C 3.09653 km/h
345 27-03-2022 00:00:00 10.76812 C 7.52 g/m*3 10.77 C 2.78659 km/h
346 28-03-2022 00:00:00 11.85278 C 7.62 g/m*3 11.85 C 3.41597 km/h
347 29-03-2022 00:00:00 11.51736 C 7.68 g/m*3 11.52 C 2.62049 km/h
348 30-03-2022 00:00:00 9.57847 C 7.43 g/m*3 9.58 C 3.11979 km/h
349 31-03-2022 00:00:00 6.48993 C 6.35 g/m*3 6.49 C 4.38194 km/h
350 01-04-2022 00:00:00 2.86597 C 5.18 g/m*3 0.62 C 8.01771 km/h
Sensor: Nr:Datum:Temp:Abs-Feuchte:Windchill:Wind:
Aussen-T/F 351 02-04-2022 00:00:00 1.97292 C 4.72 g/m*3 -0.22 C 7.33576 km/h
352 03-04-2022 00:00:00 3.15556 C 4.36 g/m*3 3.16 C 4.47882 km/h
353 04-04-2022 00:00:00 4.52083 C 5.05 g/m*3 0.93 C 16.48958 km/h
354 05-04-2022 00:00:00 9.24201 C 7.81 g/m*3 6.39 C 20.32396 km/h
355 06-04-2022 00:00:00 11.1066 C 7.41 g/m*3 11.11 C 15.60486 km/h
356 07-04-2022 00:00:00 11.55417 C 7.31 g/m*3 11.55 C 22.16736 km/h
357 08-04-2022 00:00:00 5.59201 C 6.12 g/m*3 4.03 C 7.24688 km/h
358 09-04-2022 00:00:00 5.77604 C 5.79 g/m*3 3.56 C 10.11528 km/h
359 10-04-2022 00:00:00 5.64028 C 5.39 g/m*3 4.74 C 5.19097 km/h
360 11-04-2022 00:00:00 7.66979 C 5.75 g/m*3 7.67 C 4.47569 km/h
361 12-04-2022 00:00:00 13.44479 C 7.7 g/m*3 13.44 C 3.97396 km/h
362 13-04-2022 00:00:00 14.96667 C 9.44 g/m*3 14.97 C 2.76528 km/h
363 14-04-2022 00:00:00 15.05833 C 9.84 g/m*3 15.06 C 4.85278 km/h
364 15-04-2022 00:00:00 12.1691 C 8.29 g/m*3 12.17 C 5.75556 km/h
365 16-04-2022 00:00:00 9.51632 C 6.07 g/m*3 8.73 C 6.73229 km/h
366 17-04-2022 00:00:00 9.21562 C 5.45 g/m*3 8.8 C 5.19931 km/h
367 18-04-2022 00:00:00 9.82465 C 5.83 g/m*3 9.82 C 3.48021 km/h
368 19-04-2022 00:00:00 10.70521 C 6.39 g/m*3 10.71 C 4.03542 km/h
369 20-04-2022 00:00:00 10.37118 C 5.92 g/m*3 9.58 C 7.33368 km/h
370 21-04-2022 00:00:00 10.92639 C 7.07 g/m*3 10.49 C 6.19097 km/h
371 22-04-2022 00:00:00 12.31181 C 7.75 g/m*3 12.31 C 8.20938 km/h
372 23-04-2022 00:00:00 12.48681 C 8.02 g/m*3 12.49 C 7.11979 km/h
373 24-04-2022 00:00:00 12.53715 C 7.72 g/m*3 12.54 C 4.33194 km/h
374 25-04-2022 00:00:00 9.85069 C 8.45 g/m*3 9.85 C 3.41632 km/h
375 26-04-2022 00:00:00 9.15243 C 8.27 g/m*3 9.15 C 1.27708 km/h
Sensor: Nr:Datum:Temp:Abs-Feuchte:Windchill:Wind:
Aussen-T/F 376 27-04-2022 00:00:00 11.40382 C 8.54 g/m*3 11.4 C 3.30104 km/h
377 28-04-2022 00:00:00 12.06493 C 8.04 g/m*3 12.06 C 2.92014 km/h
378 29-04-2022 00:00:00 12.12986 C 8.18 g/m*3 12.13 C 3.83229 km/h
379 30-04-2022 00:00:00 10.83993 C 7.74 g/m*3 10.29 C 6.62465 km/h
380 01-05-2022 00:00:00 11.55382 C 7.83 g/m*3 11.55 C 3.12118 km/h
381 02-05-2022 00:00:00 13.33785 C 8.8 g/m*3 13.34 C 3.34826 km/h
382 03-05-2022 00:00:00 15.40799 C 8.89 g/m*3 15.41 C 5.46181 km/h
383 04-05-2022 00:00:00 14.25313 C 8.97 g/m*3 14.25 C 3.61493 km/h
384 05-05-2022 00:00:00 14.23993 C 8.59 g/m*3 14.24 C 1.90521 km/h
385 06-05-2022 00:00:00 14.14757 C 8.5 g/m*3 14.15 C 3.575 km/h
386 07-05-2022 00:00:00 15.16319 C 9.29 g/m*3 15.16 C 2.92708 km/h
387 08-05-2022 00:00:00 15.17986 C 10.74 g/m*3 15.18 C 3.04236 km/h
388 09-05-2022 00:00:00 16.04861 C 9.94 g/m*3 16.05 C 3.06771 km/h
389 10-05-2022 00:00:00 17.88646 C 10.65 g/m*3 17.89 C 3.96632 km/h
390 11-05-2022 00:00:00 21.06458 C 11.04 g/m*3 21.06 C 8.89479 km/h
391 12-05-2022 00:00:00 18.76944 C 9.72 g/m*3 18.77 C 6.82778 km/h
392 13-05-2022 00:00:00 15.74306 C 8.92 g/m*3 15.74 C 6.05486 km/h
393 14-05-2022 00:00:00 16.19757 C 9.3 g/m*3 16.2 C 3.67292 km/h
394 15-05-2022 00:00:00 17.37917 C 10.16 g/m*3 17.38 C 3.96736 km/h
395 16-05-2022 00:00:00 17.70278 C 12.11 g/m*3 17.7 C 3.91146 km/h
396 17-05-2022 00:00:00 19.03125 C 12.51 g/m*3 19.03 C 2.67639 km/h
397 18-05-2022 00:00:00 21.24306 C 12.76 g/m*3 21.24 C 3.05243 km/h
398 19-05-2022 00:00:00 20.88352 C 13.72 g/m*3 20.88 C 3.48015 km/h

Maximal/Minimal-Werte vom 17.04.2021 - 19.05.2022

Sensor Min Max Avg
Temp
(Aussen-T/F)
-5.7 °C
06-03-2022  07:05:00
35.2 °C
17-06-2021  17:25:00
11 °C
Abs-Feuchte
(Aussen-T/F)
3.46 g/m*3
22-12-2021  00:00:00
17.6 g/m*3
18-06-2021  00:00:00
8.79 g/m*3
Windchill
(Aussen-T/F)
-4.12 C
22-12-2021  00:00:00
25.62 C
18-06-2021  00:00:00
10.59 C

Die Daten stammen von einer Davis Vantage Pro 2 Wetter-Station und werden unter Linux mit der Software wview2wettercgi und aufbereitet. Alle Angaben erfolgen ohne Gewähr für ihre Vollständigkeit oder Richtigkeit.
Kontakt: Rainer Krienke krienke@uni-koblenz.de . Meine Webseiten an der Uni Koblenz oder privat.
Version: $Revision: 0.78 $